Location: Casilda
(33.0440°S, 61.1680°W)
Time: 02:06:21
(UTC-03:00)

ISS - Pass Details

Date: 14 February 2020
Orbit: 415 x 423 km, 51.6° (Epoch: 27 February)

Event Time Altitude Azimuth Distance (km) Brightness Sun altitude
Exits shadow 05:20:49 - 224° (SW) 1,991 -0.5 -16.1°
Reaches altitude 10° 05:21:59 10° 223° (SW) 1,513 -1.1 -15.9°
Maximum altitude 05:25:23 78° 137° (SE) 436 -3.6 -15.3°
Drops below altitude 10° 05:28:45 10° 49° (NE) 1,499 -0.7 -14.7°
Sets 05:30:50 0° 48° (NE) 2,357 0.3 -14.3°
